EW4977 Weather Reports


time (UTC)temp
C
wind
direction
speed
KPH
gust
KPH
rain 1hr
cm
rain 24hr
cm
rain mn
cm
humidity
%
barometer
mb
20260507090531 2 2 1.6 8.0 0.00 0.00 0.00 76 1012.3
20260507090049 2 352 3.2 8.0 0.00 0.00 0.00 76 1012.4
20260507085531 3 338 3.2 8.0 0.00 0.00 0.00 77 1012.3
20260507085031 3 294 0.0 6.4 0.00 0.00 0.00 76 1012.3
20260507084552 3 101 1.6 6.4 0.00 0.00 0.00 77 1012.4
20260507084030 3 330 1.6 4.8 0.00 0.00 0.00 77 1012.4
20260507083530 3 129 1.6 8.0 0.00 0.00 0.00 77 1012.4
20260507083043 3 84 1.6 8.0 0.00 0.00 0.00 77 1012.5
20260507082533 3 345 1.6 4.8 0.00 0.00 0.00 77 1012.5
20260507082030 3 100 3.2 6.4 0.00 0.00 0.00 78 1012.6
20260507081551 3 346 0.0 6.4 0.00 0.00 0.00 78 1012.5
20260507081031 3 82 3.2 6.4 0.00 0.00 0.00 78 1012.5
20260507080532 3 328 3.2 6.4 0.00 0.00 0.00 79 1012.5
20260507080041 3 353 1.6 4.8 0.00 0.00 0.00 79 1012.4
20260507075529 3 125 1.6 4.8 0.00 0.00 0.00 78 1012.3
20260507075031 3 335 1.6 4.8 0.00 0.00 0.00 77 1012.3
20260507074541 3 103 0.0 3.2 0.00 0.00 0.00 77 1012.4
20260507074030 3 116 1.6 3.2 0.00 0.00 0.00 77 1012.4
20260507073531 4 9 0.0 1.6 0.00 0.00 0.00 78 1012.4
20260507073044 4 0 0.0 1.6 0.00 0.00 0.00 78 1012.4
20260507072531 4 9 0.0 3.2 0.00 0.00 0.00 75 1012.4
20260507072031 4 0 0.0 3.2 0.00 0.00 0.00 76 1012.4
20260507071537 4 9 0.0 3.2 0.00 0.00 0.00 75 1012.6
20260507071031 4 0 0.0 1.6 0.00 0.00 0.00 74 1012.5
20260507070532 4 0 0.0 0.0 0.00 0.00 0.00 71 1012.4
20260507070044 4 0 0.0 0.0 0.00 0.00 0.00 72 1012.4
20260507065530 5 0 0.0 1.6 0.00 0.00 0.00 72 1012.5
20260507065028 5 0 0.0 1.6 0.00 0.00 0.00 73 1012.6
20260507064601 5 9 0.0 1.6 0.00 0.00 0.00 72 1012.6
20260507064031 5 0 0.0 1.6 0.00 0.00 0.00 70 1012.6
20260507063531 5 9 0.0 1.6 0.00 0.00 0.00 70 1012.7
20260507063044 5 0 0.0 3.2 0.00 0.00 0.00 70 1012.6
20260507062531 5 9 0.0 3.2 0.00 0.00 0.00 71 1012.7
20260507062031 5 25 0.0 1.6 0.00 0.00 0.00 71 1012.7
20260507061540 5 0 0.0 1.6 0.00 0.00 0.00 71 1012.7
20260507061030 5 85 0.0 1.6 0.00 0.00 0.00 69 1012.8
20260507060532 5 0 0.0 1.6 0.00 0.00 0.00 67 1012.9
20260507060108 5 0 0.0 1.6 0.00 0.00 0.00 66 1012.9
20260507055531 5 0 0.0 1.6 0.00 0.00 0.00 65 1012.9
20260507055032 6 85 0.0 1.6 0.00 0.00 0.00 63 1013.0
20260507054548 6 0 0.0 3.2 0.00 0.00 0.00 63 1012.9
20260507054030 6 0 0.0 3.2 0.00 0.00 0.00 62 1012.9
20260507053529 6 303 0.0 4.8 0.00 0.00 0.00 61 1013.0
20260507053041 6 307 1.6 4.8 0.00 0.00 0.00 60 1013.0
20260507052530 6 307 1.6 6.4 0.00 0.00 0.00 60 1013.0
20260507052030 6 288 1.6 6.4 0.00 0.00 0.00 60 1013.1
20260507051553 6 305 1.6 4.8 0.00 0.00 0.00 60 1013.1
20260507051030 6 308 1.6 4.8 0.00 0.00 0.00 62 1013.1
20260507050534 6 286 0.0 3.2 0.00 0.00 0.00 62 1013.1
20260507050044 6 283 0.0 4.8 0.00 0.00 0.00 59 1013.0
20260507045532 6 283 1.6 4.8 0.00 0.00 0.00 58 1013.0
20260507045032 6 283 1.6 6.4 0.00 0.00 0.00 59 1013.1
20260507044535 6 283 1.6 6.4 0.00 0.00 0.00 58 1013.0
20260507044030 7 284 0.0 4.8 0.00 0.00 0.00 59 1013.0
20260507043530 7 284 1.6 4.8 0.00 0.00 0.00 59 1013.0
20260507043041 7 271 0.0 6.4 0.00 0.00 0.00 58 1013.0
20260507042531 7 293 3.2 6.4 0.00 0.00 0.00 57 1013.0
20260507042030 7 287 1.6 6.4 0.00 0.00 0.00 56 1013.0
20260507041544 7 287 0.0 6.4 0.00 0.00 0.00 56 1013.0
20260507041032 7 290 1.6 6.4 0.00 0.00 0.00 56 1013.0
20260507040529 7 281 0.0 4.8 0.00 0.00 0.00 56 1012.9
20260507040042 7 281 0.0 4.8 0.00 0.00 0.00 56 1012.9
20260507035531 7 281 1.6 4.8 0.00 0.00 0.00 55 1013.0
20260507035031 7 283 1.6 4.8 0.00 0.00 0.00 55 1013.0
20260507034538 7 283 1.6 4.8 0.00 0.00 0.00 55 1012.9
20260507034030 7 276 1.6 6.4 0.00 0.00 0.00 55 1013.0
20260507033535 7 284 1.6 6.4 0.00 0.00 0.00 55 1012.8
20260507033038 7 285 1.6 4.8 0.00 0.00 0.00 54 1013.0
20260507032530 7 283 1.6 6.4 0.00 0.00 0.00 55 1012.9
20260507032030 7 282 3.2 6.4 0.00 0.00 0.00 53 1013.0
20260507031538 7 288 3.2 6.4 0.00 0.00 0.00 53 1013.1
20260507031030 7 280 3.2 6.4 0.00 0.00 0.00 53 1013.0
20260507030531 8 295 0.0 6.4 0.00 0.00 0.00 54 1013.0
20260507030037 8 293 0.0 6.4 0.00 0.00 0.00 52 1013.0
20260507025532 8 0 0.0 4.8 0.00 0.00 0.00 52 1013.0
20260507025032 8 275 1.6 4.8 0.00 0.00 0.00 51 1013.0
20260507024542 8 271 1.6 6.4 0.00 0.00 0.00 51 1013.0
20260507024031 8 296 1.6 6.4 0.00 0.00 0.00 50 1013.0
20260507023530 8 282 3.2 6.4 0.00 0.00 0.00 50 1012.9
20260507023042 8 285 3.2 6.4 0.00 0.00 0.00 50 1012.7
20260507022530 8 311 1.6 6.4 0.00 0.00 0.00 51 1012.8
20260507022031 8 290 1.6 4.8 0.00 0.00 0.00 49 1012.7
20260507021541 8 290 1.6 4.8 0.00 0.00 0.00 48 1012.6
20260507021028 8 290 1.6 8.0 0.00 0.00 0.00 48 1012.6
20260507020529 8 317 3.2 8.0 0.00 0.00 0.00 49 1012.5
20260507020044 8 312 3.2 9.7 0.00 0.00 0.00 48 1012.5
20260507015528 8 289 3.2 9.7 0.00 0.00 0.00 47 1012.3
20260507015034 8 300 3.2 8.0 0.00 0.00 0.00 47 1012.4
20260507014547 9 276 1.6 8.0 0.00 0.00 0.00 48 1012.5
20260507014029 9 287 3.2 11.3 0.00 0.00 0.00 47 1012.4
20260507013529 9 294 6.4 11.3 0.00 0.00 0.00 46 1012.5
20260507013043 9 288 4.8 9.7 0.00 0.00 0.00 46 1012.3
20260507012532 9 322 4.8 12.9 0.00 0.00 0.00 46 1012.4
20260507012031 9 317 4.8 14.5 0.00 0.00 0.00 46 1012.3
20260507011541 9 290 4.8 14.5 0.00 0.00 0.00 46 1012.3
20260507011029 9 302 4.8 8.0 0.00 0.00 0.00 46 1012.4
20260507010527 9 285 1.6 4.8 0.00 0.00 0.00 46 1012.2
20260507010057 9 0 0.0 4.8 0.00 0.00 0.00 47 1012.2
20260507005531 9 0 0.0 16.1 0.00 0.00 0.00 46 1012.3
20260507005032 9 290 1.6 16.1 0.00 0.00 0.00 46 1012.2
20260507004543 10 231 4.8 16.1 0.00 0.00 0.00 44 1012.2
20260507004030 10 301 6.4 11.3 0.00 0.00 0.00 42 1012.0
20260507003528 10 296 4.8 11.3 0.00 0.00 0.00 43 1012.0
20260507003039 10 289 4.8 12.9 0.00 0.00 0.00 42 1011.9
20260507002528 10 323 8.0 12.9 0.00 0.00 0.00 42 1011.9
20260507002033 10 297 3.2 11.3 0.00 0.00 0.00 42 1011.9
20260507001537 10 289 3.2 11.3 0.00 0.00 0.00 42 1011.7
20260507001028 10 297 6.4 16.1 0.00 0.00 0.00 42 1011.7
20260507000530 10 279 3.2 16.1 0.00 0.00 0.00 40 1011.7
20260507000042 10 286 6.4 16.1 0.00 0.00 0.00 40 1011.8
20260506235531 10 268 3.2 12.9 0.00 0.00 0.00 40 1011.6
20260506235029 10 283 3.2 11.3 0.00 0.00 0.00 40 1011.7
20260506234541 10 292 3.2 9.7 0.00 0.00 0.00 40 1011.7
20260506234030 10 269 1.6 9.7 0.00 0.00 0.00 39 1011.6
20260506233528 10 256 3.2 11.3 0.00 0.00 0.00 39 1011.6
20260506233037 10 278 3.2 11.3 0.00 0.00 0.00 39 1011.6
20260506232529 10 248 4.8 14.5 0.00 0.00 0.00 40 1011.5
20260506232028 10 281 3.2 14.5 0.00 0.00 0.00 39 1011.5
20260506231603 10 294 4.8 12.9 0.00 0.00 0.00 39 1011.5
20260506231028 10 278 6.4 12.9 0.00 0.00 0.00 38 1011.5
20260506230531 11 267 4.8 11.3 0.00 0.00 0.00 38 1011.5
20260506230104 11 287 3.2 14.5 0.00 0.00 0.00 40 1011.6
20260506225530 11 271 6.4 14.5 0.00 0.00 0.00 39 1011.6
20260506225030 11 296 4.8 12.9 0.00 0.00 0.00 38 1011.5
20260506224541 11 288 6.4 12.9 0.00 0.00 0.00 38 1011.5
20260506224029 11 293 1.6 12.9 0.00 0.00 0.00 39 1011.4
20260506223528 11 290 6.4 14.5 0.00 0.00 0.00 37 1011.4
20260506223041 11 236 4.8 14.5 0.00 0.00 0.00 39 1011.3
20260506222528 11 290 3.2 12.9 0.00 0.00 0.00 39 1011.5
20260506222028 11 272 3.2 12.9 0.00 0.00 0.00 38 1011.4
20260506221558 11 269 4.8 11.3 0.00 0.00 0.00 38 1011.5
20260506221028 11 287 3.2 12.9 0.00 0.00 0.00 38 1011.6
20260506220530 11 291 4.8 12.9 0.00 0.00 0.00 38 1011.5
20260506220050 11 229 4.8 12.9 0.00 0.00 0.00 40 1011.5
20260506215531 11 243 4.8 19.3 0.00 0.00 0.00 38 1011.4
20260506215027 11 277 8.0 19.3 0.00 0.00 0.00 38 1011.4
20260506214540 11 240 3.2 14.5 0.00 0.00 0.00 39 1011.4
20260506214029 11 233 6.4 17.7 0.00 0.00 0.00 38 1011.3
20260506213530 11 236 4.8 17.7 0.00 0.00 0.00 40 1011.4
20260506213055 11 235 4.8 17.7 0.00 0.00 0.00 39 1011.4
20260506212528 11 261 3.2 17.7 0.00 0.00 0.00 40 1011.4
20260506212030 11 261 3.2 12.9 0.00 0.00 0.00 39 1011.4
20260506211541 11 283 6.4 14.5 0.00 0.00 0.00 38 1011.4
20260506211028 11 278 4.8 14.5 0.00 0.00 0.00 39 1011.4
20260506210527 11 274 4.8 16.1 0.00 0.00 0.00 41 1011.4
20260506210052 11 271 8.0 20.9 0.00 0.00 0.00 42 1011.4
20260506205529 11 290 8.0 20.9 0.00 0.00 0.00 41 1011.5
20260506205030 11 246 4.8 17.7 0.00 0.00 0.00 41 1011.4
20260506204541 11 292 9.7 20.9 0.00 0.00 0.00 40 1011.4
20260506204027 11 295 6.4 20.9 0.00 0.00 0.00 40 1011.4
20260506203530 11 252 3.2 14.5 0.00 0.00 0.00 39 1011.5
20260506203036 11 269 6.4 14.5 0.00 0.00 0.00 40 1011.4
20260506202528 11 231 3.2 19.3 0.00 0.00 0.00 41 1011.5
20260506202030 11 247 9.7 19.3 0.00 0.00 0.00 41 1011.5
20260506201542 11 283 3.2 17.7 0.00 0.00 0.00 41 1011.5
20260506201028 11 288 4.8 17.7 0.00 0.00 0.00 39 1011.5
20260506200527 11 283 8.0 17.7 0.00 0.00 0.00 40 1011.6
20260506200037 11 297 4.8 12.9 0.00 0.00 0.00 40 1011.6
20260506195528 11 223 3.2 11.3 0.00 0.00 0.00 41 1011.5
20260506195030 11 214 1.6 9.7 0.00 0.00 0.00 43 1011.7
20260506194540 11 215 3.2 9.7 0.00 0.00 0.00 42 1011.7
20260506194031 11 320 1.6 9.7 0.00 0.00 0.00 42 1011.9
20260506193529 10 321 1.6 9.7 0.00 0.00 0.00 43 1011.7
20260506193038 10 294 3.2 12.9 0.00 0.00 0.00 41 1011.8
20260506192533 10 267 4.8 12.9 0.00 0.00 0.00 43 1011.8
20260506192032 10 269 4.8 14.5 0.00 0.00 0.00 42 1011.9
20260506191538 10 270 4.8 14.5 0.00 0.00 0.00 43 1012.0
20260506191033 10 282 8.0 12.9 0.00 0.00 0.00 42 1011.9
20260506190532 10 242 4.8 16.1 0.00 0.00 0.00 43 1011.9
20260506190043 10 285 6.4 16.1 0.00 0.00 0.00 44 1011.8
20260506185532 10 332 3.2 16.1 0.00 0.00 0.00 43 1011.9
20260506185031 10 302 6.4 16.1 0.00 0.00 0.00 42 1011.9
20260506184556 10 191 1.6 9.7 0.00 0.00 0.00 45 1011.9
20260506184031 10 285 1.6 12.9 0.00 0.00 0.00 43 1011.9
20260506183532 10 207 3.2 12.9 0.00 0.00 0.00 43 1012.0
20260506183043 10 274 3.2 11.3 0.00 0.00 0.00 42 1012.0
20260506182531 10 247 4.8 11.3 0.00 0.00 0.00 43 1012.0
20260506182033 10 233 3.2 11.3 0.00 0.00 0.00 44 1012.0
20260506181543 10 264 4.8 11.3 0.00 0.00 0.00 43 1011.9
20260506181032 10 288 3.2 9.7 0.00 0.00 0.00 43 1012.0
20260506180531 10 245 3.2 14.5 0.00 0.00 0.00 44 1012.0
20260506180047 10 163 3.2 16.1 0.00 0.00 0.00 44 1012.0
20260506175531 10 281 6.4 16.1 0.00 0.00 0.00 45 1011.9
20260506175031 10 284 3.2 8.0 0.00 0.00 0.00 43 1012.1
20260506174543 10 261 3.2 16.1 0.00 0.00 0.00 45 1012.2
20260506174031 10 230 3.2 16.1 0.00 0.00 0.00 45 1012.1
20260506173531 10 318 1.6 8.0 0.00 0.00 0.00 44 1012.4
20260506173047 10 226 3.2 8.0 0.00 0.00 0.00 47 1012.4
20260506172531 10 226 3.2 6.4 0.00 0.00 0.00 45 1012.4
20260506172035 9 298 1.6 6.4 0.00 0.00 0.00 48 1012.5
20260506171555 9 234 0.0 4.8 0.00 0.00 0.00 49 1012.5
20260506171031 9 208 1.6 6.4 0.00 0.00 0.00 49 1012.4
20260506170532 8 287 0.0 12.9 0.00 0.00 0.00 49 1012.4
20260506170043 8 291 4.8 14.5 0.00 0.00 0.00 47 1012.5
20260506165535 8 321 4.8 14.5 0.00 0.00 0.00 51 1012.4
20260506165032 8 268 4.8 14.5 0.00 0.00 0.00 48 1012.5
20260506164539 9 296 8.0 14.5 0.00 0.00 0.00 47 1012.5
20260506164030 9 328 3.2 12.9 0.00 0.00 0.00 49 1012.5
20260506163531 9 300 8.0 12.9 0.00 0.00 0.00 48 1012.5
20260506163042 10 316 8.0 12.9 0.00 0.00 0.00 47 1012.4
20260506162532 10 230 4.8 14.5 0.00 0.00 0.00 47 1012.6
20260506162031 10 299 3.2 14.5 0.00 0.00 0.00 48 1012.6
20260506161544 9 288 3.2 14.5 0.00 0.00 0.00 47 1012.7
20260506161033 9 226 1.6 14.5 0.00 0.00 0.00 49 1012.5
20260506160533 9 342 6.4 14.5 0.00 0.00 0.00 50 1012.6
20260506160057 9 307 4.8 17.7 0.00 0.00 0.00 46 1012.5
20260506155529 10 317 4.8 17.7 0.00 0.00 0.00 45 1012.6
20260506155032 10 247 3.2 8.0 0.00 0.00 0.00 47 1012.5
20260506154539 10 188 1.6 8.0 0.00 0.00 0.00 51 1012.7
20260506154034 10 237 1.6 8.0 0.00 0.00 0.00 53 1012.7
20260506153532 9 233 0.0 9.7 0.00 0.00 0.00 52 1012.8
20260506153044 9 307 1.6 12.9 0.00 0.00 0.00 56 1012.8
20260506152531 9 278 4.8 12.9 0.00 0.00 0.00 51 1013.0
20260506152030 10 246 1.6 12.9 0.00 0.00 0.00 53 1012.8
20260506151545 9 124 0.0 6.4 0.00 0.00 0.00 58 1012.9
20260506151034 9 83 1.6 6.4 0.00 0.00 0.00 58 1012.8
20260506150530 8 349 0.0 8.0 0.00 0.00 0.00 62 1012.8
20260506150047 8 48 1.6 8.0 0.00 0.00 0.00 59 1012.6
20260506145531 8 68 3.2 6.4 0.00 0.00 0.00 61 1012.6
20260506145032 8 240 3.2 6.4 0.00 0.00 0.00 57 1012.7
20260506144557 9 275 0.0 4.8 0.00 0.00 0.00 58 1012.6
20260506144035 9 220 0.0 3.2 0.00 0.00 0.00 62 1012.7
20260506143534 8 220 1.6 3.2 0.00 0.00 0.00 59 1012.7
20260506143044 8 223 1.6 4.8 0.00 0.00 0.00 61 1012.7
20260506142532 8 160 1.6 4.8 0.00 0.00 0.00 61 1012.7
20260506142031 7 158 1.6 8.0 0.00 0.00 0.00 65 1012.4
20260506141540 7 13 3.2 8.0 0.00 0.00 0.00 64 1012.6
20260506141031 7 317 3.2 4.8 0.00 0.00 0.00 63 1012.4
20260506140533 7 263 0.0 4.8 0.00 0.00 0.00 62 1012.4
20260506140042 7 0 0.0 4.8 0.00 0.00 0.00 65 1012.4
20260506135533 6 345 0.0 4.8 0.00 0.00 0.00 66 1012.4
20260506135033 6 23 1.6 4.8 0.00 0.00 0.00 66 1012.5
20260506134542 6 317 1.6 6.4 0.00 0.00 0.00 66 1012.5
20260506134031 6 349 0.0 6.4 0.00 0.00 0.00 66 1012.5
20260506133530 6 350 1.6 9.7 0.00 0.00 0.00 66 1012.5
20260506133047 6 108 3.2 9.7 0.00 0.00 0.00 69 1012.7
20260506132534 5 342 1.6 8.0 0.00 0.00 0.00 68 1012.6
20260506132031 5 314 3.2 8.0 0.00 0.00 0.00 69 1012.7
20260506131543 5 17 3.2 8.0 0.00 0.00 0.00 71 1012.7
20260506131032 5 335 4.8 8.0 0.00 0.00 0.00 70 1012.6
20260506130528 5 333 3.2 8.0 0.00 0.00 0.00 70 1012.4
20260506130046 5 350 1.6 8.0 0.00 0.00 0.00 71 1012.4
20260506125530 5 335 3.2 6.4 0.00 0.00 0.00 71 1012.4
20260506125031 4 68 3.2 9.7 0.00 0.00 0.00 73 1012.4
20260506124537 4 66 3.2 9.7 0.00 0.00 0.00 74 1012.3
20260506124033 4 326 1.6 9.7 0.00 0.00 0.00 75 1012.4
20260506123531 4 309 3.2 11.3 0.00 0.00 0.00 75 1012.3
20260506123045 4 91 4.8 11.3 0.00 0.00 0.00 76 1012.2
20260506122531 3 348 4.8 11.3 0.00 0.00 0.00 76 1012.0
20260506122033 3 119 4.8 8.0 0.00 0.00 0.00 76 1012.0
20260506121542 3 95 3.2 8.0 0.00 0.00 0.00 76 1012.0
20260506121030 3 117 3.2 8.0 0.00 0.00 0.00 76 1011.8
20260506120535 3 96 3.2 11.3 0.00 0.00 0.00 76 1011.7
20260506120039 3 338 4.8 11.3 0.00 0.00 0.00 76 1011.6
20260506115531 3 65 1.6 11.3 0.00 0.00 0.00 76 1011.6
20260506115027 3 64 4.8 11.3 0.00 0.00 0.00 75 1011.5
20260506114551 3 1 1.6 6.4 0.00 0.00 0.00 77 1011.4
20260506114030 3 0 1.6 6.4 0.00 0.00 0.00 76 1011.4
20260506113530 3 16 3.2 8.0 0.00 0.00 0.00 77 1011.3
20260506113042 3 108 3.2 12.9 0.00 0.00 0.00 77 1011.1
20260506112531 3 23 1.6 12.9 0.00 0.00 0.00 77 1011.2
20260506112031 3 89 1.6 11.3 0.00 0.00 0.00 77 1011.3
20260506111543 2 268 1.6 11.3 0.00 0.00 0.00 78 1011.4
20260506111028 2 96 4.8 11.3 0.00 0.00 0.00 78 1011.5
20260506110531 2 327 4.8 11.3 0.00 0.00 0.00 79 1011.5
20260506110042 2 84 4.8 11.3 0.00 0.00 0.00 79 1011.4
20260506105531 2 20 1.6 12.9 0.00 0.00 0.00 80 1011.2
20260506105031 2 48 4.8 12.9 0.00 0.00 0.00 81 1011.1
20260506104540 2 79 4.8 12.9 0.00 0.00 0.00 82 1011.1
20260506104030 2 313 4.8 11.3 0.00 0.00 0.00 82 1011.0
20260506103529 2 101 1.6 4.8 0.00 0.00 0.00 82 1011.0
20260506103044 2 127 1.6 4.8 0.00 0.00 0.00 81 1011.1
20260506102531 2 101 1.6 9.7 0.00 0.00 0.00 81 1010.9
20260506102031 2 72 3.2 9.7 0.00 0.00 0.00 81 1010.7
20260506101537 2 126 3.2 9.7 0.00 0.00 0.00 81 1010.7
20260506101030 2 40 3.2 9.7 0.00 0.00 0.00 81 1010.6
20260506100532 3 122 3.2 9.7 0.00 0.00 0.00 81 1010.4
20260506100100 3 20 3.2 8.0 0.00 0.00 0.00 81 1010.3
20260506095531 3 65 1.6 12.9 0.00 0.00 0.00 80 1010.1
20260506095031 3 48 3.2 12.9 0.00 0.00 0.00 79 1010.0
20260506094543 3 26 3.2 12.9 0.00 0.00 0.00 78 1010.0
20260506094031 3 359 1.6 8.0 0.00 0.00 0.00 77 1010.0
20260506093531 3 19 3.2 8.0 0.00 0.00 0.00 75 1009.9
20260506093038 3 77 1.6 8.0 0.00 0.00 0.00 71 1009.8
20260506092533 4 328 1.6 4.8 0.00 0.00 0.00 69 1009.7
20260506092033 4 356 1.6 6.4 0.00 0.00 0.00 68 1009.5
20260506091545 5 344 1.6 6.4 0.00 0.00 0.00 68 1009.6
20260506091031 5 342 3.2 8.0 0.00 0.00 0.00 66 1009.6